Location: Santa Fe
(35.6870°N, 105.9370°W)
Time: 19:34:35
(UTC-06:00)

Amateur Radio Satellites - All Passes

Search period start: 24 July 2014 19:04
Search period end: 25 July 2014 19:04
Location: Santa Fe, 35.6870°N, 105.9370°W

Satellite Date Start Highest point End Downlink Frequencies (MHz)
Time Altitude Azimuth
JAS-2 24 Jul 19:46:08 19:52:56 32° 265° (W) 19:59:37 435.800 - 435.900 CW/SSB, 435.910 FM
STRAND 1 24 Jul 20:25:30 20:30:22 46° 288° (WNW) 20:35:12 ?
SO-67 24 Jul 20:26:27 20:28:39 16° 266° (W) 20:30:51 435.3500 MHz FM
RS-15 24 Jul 20:46:31 20:52:40 16° 22° (NNE) 20:58:51 29.354 - 29.394 USB, Beacon 29.352 USB
HO-68 24 Jul 20:47:57 20:54:49 51° 69° (ENE) 21:01:42 435.675 MHz FM
Oscar 11 24 Jul 21:02:55 21:05:26 15° 67° (ENE) 21:07:58 145.825 FM, Beacon 2401.500 USB
MaSat-1 24 Jul 21:33:47 21:36:13 16° 100° (E) 21:38:52 437.345 MHz
UKube-1 24 Jul 21:46:31 21:50:52 72° 258° (WSW) 21:55:14 145.840 MHz, 145.915 MHz
SO-50 24 Jul 22:10:10 22:13:58 23° 51° (NE) 22:17:48 436.795 FM
HO-68 24 Jul 22:36:53 22:42:42 27° 264° (W) 22:48:35 435.675 MHz FM
Oscar 11 24 Jul 22:37:14 22:41:16 39° 261° (W) 22:45:19 145.825 FM, Beacon 2401.500 USB
FUNcube-1 24 Jul 22:45:19 22:49:44 84° 77° (ENE) 22:54:04 145.950 - 145.970 MHz USB
RS-15 24 Jul 22:58:03 23:08:41 49° 52° (NE) 23:19:37 29.354 - 29.394 USB, Beacon 29.352 USB
Lituanica SAT-1 24 Jul 23:00:11 23:01:47 19° 132° (SE) 23:03:24 437.275 MHz beacon
MaSat-1 24 Jul 23:09:36 23:13:06 32° 301° (WNW) 23:17:10 437.345 MHz
SO-50 24 Jul 23:50:12 23:54:38 39° 246° (WSW) 23:59:06 436.795 FM
ISS 25 Jul 00:04:34 00:06:41 16° 128° (SE) 00:08:48 145.800 FM
Lituanica SAT-1 25 Jul 00:33:17 00:34:25 13° 327° (NNW) 00:35:33 437.275 MHz beacon
UOSAT-12 25 Jul 00:36:11 00:40:43 44° 56° (NE) 00:45:10 437.025 FM, 437.400 FM
Sapphire 25 Jul 00:44:07 00:47:25 17° 104° (ESE) 00:50:43 437.095 MHz 1200 baud AX-25 AFSK
RS-15 25 Jul 01:10:37 01:20:53 46° 251° (WSW) 01:31:34 29.354 - 29.394 USB, Beacon 29.352 USB
PCSat 25 Jul 01:16:05 01:21:01 37° 109° (ESE) 01:25:58 145.825 MHz
Oscar 19 25 Jul 01:22:32 01:24:33 12° 91° (E) 01:26:34 437.125 CW, 437.150 USB
ISS 25 Jul 01:39:57 01:43:08 41° 323° (NW) 01:46:21 145.800 FM
Oscar 16 25 Jul 01:48:14 01:52:26 25° 96° (E) 01:56:37 437.025 USB, Beacon 2401.1428
ITAMSAT 1 25 Jul 02:01:20 02:03:43 13° 92° (E) 02:06:06 435.822 SSB
JAS-1B 25 Jul 02:06:57 02:12:01 16° 85° (E) 02:16:43 435.800 - 435.900 CW/SSB
AO-Echo 25 Jul 02:12:57 02:16:26 18° 93° (E) 02:19:50 ?
UOSAT-12 25 Jul 02:17:22 02:20:30 18° 251° (WSW) 02:23:36 437.025 FM, 437.400 FM
AO-27 25 Jul 02:18:06 02:21:57 21° 95° (E) 02:25:46 436.795 MHz FM
Uribyol 2 25 Jul 02:20:31 02:24:35 23° 95° (E) 02:28:36 436.500 FM
Sapphire 25 Jul 02:25:01 02:30:18 56° 299° (WNW) 02:35:38 437.095 MHz 1200 baud AX-25 AFSK
Oscar 19 25 Jul 02:59:10 03:04:17 66° 286° (WNW) 03:09:24 437.125 CW, 437.150 USB
PCSat 25 Jul 02:59:55 03:04:28 27° 306° (NW) 03:09:03 145.825 MHz
Oscar 16 25 Jul 03:27:11 03:31:46 33° 290° (WNW) 03:36:22 437.025 USB, Beacon 2401.1428
TMSAT-1 25 Jul 03:32:57 03:37:40 32° 97° (E) 03:42:22 436.925 FM
ITAMSAT 1 25 Jul 03:38:28 03:43:35 62° 286° (WNW) 03:48:39 435.822 SSB
OPAL 25 Jul 03:43:45 03:48:24 43° 70° (ENE) 03:53:03 ?
AO-Echo 25 Jul 03:50:35 03:55:23 42° 288° (WNW) 04:00:02 ?
Gurwin Techsat 1B 25 Jul 03:54:02 03:59:21 75° 102° (ESE) 04:04:38 435.225 FM
JAS-1B 25 Jul 03:54:19 04:03:54 87° 104° (ESE) 04:12:04 435.800 - 435.900 CW/SSB
AO-27 25 Jul 03:56:45 04:01:34 40° 289° (WNW) 04:06:21 436.795 MHz FM
Uribyol 2 25 Jul 03:59:24 04:04:05 36° 290° (WNW) 04:08:45 436.500 FM
Uosat F 25 Jul 04:06:55 04:09:16 13° 92° (E) 04:11:37 435.120 FM
Oscar 10/S400 25 Jul 04:37:13 05:55:32 55° 226° (SW) 12:41:36 145.825 - 145.975 CW/USB, Beacon 145.810 USB
AO-7 25 Jul 04:55:03 05:02:55 44° 101° (E) 05:10:42 29.400 - 29.500 MHz
TMSAT-1 25 Jul 05:13:02 05:17:25 27° 292° (WNW) 05:21:48 436.925 FM
OPAL 25 Jul 05:24:04 05:27:26 18° 264° (W) 05:30:48 ?
Gurwin Techsat 1B 25 Jul 05:36:29 05:38:37 13° 298° (WNW) 05:40:46 435.225 FM
Uosat F 25 Jul 05:43:28 05:48:23 58° 287° (WNW) 05:53:17 435.120 FM
JAS-1B 25 Jul 05:46:25 05:52:58 22° 304° (NW) 05:59:02 435.800 - 435.900 CW/SSB
STRAND 1 25 Jul 06:00:53 06:04:35 20° 66° (ENE) 06:08:17 ?
Hamsat 25 Jul 06:07:04 06:09:52 17° 94° (E) 06:12:41 145.90 MHz
KITSAT 1 25 Jul 06:08:48 06:15:29 30° 106° (ESE) 06:22:11 435.175 FM
ISS 25 Jul 06:35:58 06:36:57 11° 22° (NNE) 06:37:56 145.800 FM
Lituanica SAT-1 25 Jul 06:46:40 06:48:44 68° 41° (NE) 06:50:48 437.275 MHz beacon
AO-7 25 Jul 06:48:03 06:55:29 38° 297° (WNW) 07:02:54 29.400 - 29.500 MHz
JAS-2 25 Jul 06:59:34 07:05:23 48° 98° (E) 07:10:35 435.800 - 435.900 CW/SSB, 435.910 FM
PANSAT 25 Jul 07:03:38 07:06:29 20° 167° (SSE) 07:09:20 not established
MaSat-1 25 Jul 07:30:21 07:35:04 31° 59° (ENE) 07:39:34 437.345 MHz
STRAND 1 25 Jul 07:38:34 07:43:26 43° 261° (W) 07:48:19 ?
Hamsat 25 Jul 07:42:01 07:45:54 34° 287° (WNW) 07:49:48 145.90 MHz
SO-67 25 Jul 07:51:55 07:55:12 39° 98° (E) 07:58:28 435.3500 MHz FM
KITSAT 1 25 Jul 08:02:30 08:10:24 55° 303° (WNW) 08:18:21 435.175 FM
ISS 25 Jul 08:10:56 08:14:16 60° 40° (NE) 08:17:34 145.800 FM
Saudisat 1A 25 Jul 08:31:08 08:35:26 54° 116° (ESE) 08:39:45 436.775 MHz
PANSAT 25 Jul 08:42:53 08:46:12 28° 180° (S) 08:49:31 not established
JAS-2 25 Jul 08:45:37 08:49:57 21° 297° (WNW) 08:53:59 435.800 - 435.900 CW/SSB, 435.910 FM
MaSat-1 25 Jul 09:07:46 09:12:22 31° 256° (WSW) 09:16:42 437.345 MHz
UKube-1 25 Jul 09:38:24 09:41:55 24° 96° (E) 09:45:24 145.840 MHz, 145.915 MHz
ISS 25 Jul 09:49:38 09:50:34 11° 234° (SW) 09:51:30 145.800 FM
KITSAT 1 25 Jul 10:04:15 10:07:48 13° 326° (NW) 10:11:21 435.175 FM
HO-68 25 Jul 10:06:01 10:13:10 70° 104° (ESE) 10:20:15 435.675 MHz FM
PCSat 25 Jul 10:07:32 10:11:14 18° 50° (NE) 10:14:54 145.825 MHz
Saudisat 1A 25 Jul 10:12:38 10:15:20 16° 313° (NW) 10:18:02 436.775 MHz
PANSAT 25 Jul 10:23:01 10:25:56 20° 192° (SSW) 10:28:49 not established
Oscar 11 25 Jul 10:27:33 10:31:42 43° 99° (E) 10:35:49 145.825 FM, Beacon 2401.500 USB
FUNcube-1 25 Jul 10:38:23 10:41:21 19° 95° (E) 10:44:20 145.950 - 145.970 MHz USB
UKube-1 25 Jul 11:14:26 11:18:02 26° 291° (WNW) 11:21:36 145.840 MHz, 145.915 MHz
Sapphire 25 Jul 11:15:48 11:21:11 62° 61° (ENE) 11:26:32 437.095 MHz 1200 baud AX-25 AFSK
PCSat 25 Jul 11:49:42 11:55:03 61° 247° (WSW) 12:00:22 145.825 MHz
HO-68 25 Jul 11:55:11 12:00:09 21° 300° (WNW) 12:05:07 435.675 MHz FM
Oscar 11 25 Jul 12:05:10 12:07:29 14° 293° (WNW) 12:09:48 145.825 FM, Beacon 2401.500 USB
FUNcube-1 25 Jul 12:14:11 12:17:45 28° 289° (WNW) 12:21:21 145.950 - 145.970 MHz USB
SO-50 25 Jul 12:24:54 12:26:35 12° 107° (ESE) 12:28:17 436.795 FM
Oscar 19 25 Jul 12:36:48 12:39:26 14° 64° (ENE) 12:42:05 437.125 CW, 437.150 USB
JAS-1B 25 Jul 12:49:38 12:53:07 13° 49° (NE) 12:56:42 435.800 - 435.900 CW/SSB
Sapphire 25 Jul 13:01:04 13:04:01 15° 256° (WSW) 13:06:57 437.095 MHz 1200 baud AX-25 AFSK
Oscar 16 25 Jul 13:02:35 13:06:50 27° 68° (ENE) 13:11:07 437.025 USB, Beacon 2401.1428
ITAMSAT 1 25 Jul 13:16:28 13:19:40 17° 64° (ENE) 13:22:52 435.822 SSB
RS-15 25 Jul 13:18:32 13:28:34 40° 107° (ESE) 13:38:21 29.354 - 29.394 USB, Beacon 29.352 USB
AO-Echo 25 Jul 13:22:54 13:26:38 20° 66° (ENE) 13:30:24 ?
AO-27 25 Jul 13:33:29 13:37:39 25° 67° (ENE) 13:41:50 436.795 MHz FM
Uribyol 2 25 Jul 13:35:39 13:39:57 27° 68° (ENE) 13:44:16 436.500 FM
SO-50 25 Jul 14:02:12 14:06:35 57° 302° (WNW) 14:11:03 436.795 FM
KITSAT 1 25 Jul 14:06:56 14:08:49 11° 31° (NNE) 14:10:42 435.175 FM
Oscar 19 25 Jul 14:13:11 14:18:13 61° 259° (W) 14:23:18 437.125 CW, 437.150 USB
JAS-1B 25 Jul 14:33:06 14:41:21 59° 69° (ENE) 14:50:47 435.800 - 435.900 CW/SSB
Oscar 16 25 Jul 14:41:36 14:46:04 30° 263° (W) 14:50:32 437.025 USB, Beacon 2401.1428
UOSAT-12 25 Jul 14:45:14 14:48:58 25° 111° (ESE) 14:52:47 437.025 FM, 437.400 FM
TMSAT-1 25 Jul 14:50:50 14:55:42 38° 71° (ENE) 15:00:35 436.925 FM
ITAMSAT 1 25 Jul 14:53:35 14:58:41 55° 259° (W) 15:03:48 435.822 SSB
AO-Echo 25 Jul 14:59:57 15:04:59 47° 261° (W) 15:10:07 ?
Gurwin Techsat 1B 25 Jul 15:12:10 15:17:29 87° 76° (ENE) 15:22:49 435.225 FM
AO-27 25 Jul 15:12:12 15:16:57 35° 262° (W) 15:21:43 436.795 MHz FM
Uribyol 2 25 Jul 15:14:40 15:19:16 32° 263° (W) 15:23:54 436.500 FM
Uosat F 25 Jul 15:17:37 15:20:25 15° 64° (ENE) 15:23:12 435.120 FM
RS-15 25 Jul 15:29:42 15:40:30 54° 307° (NW) 15:51:10 29.354 - 29.394 USB, Beacon 29.352 USB
AO-7 25 Jul 15:50:41 15:58:32 47° 65° (ENE) 16:06:24 29.400 - 29.500 MHz
OPAL 25 Jul 15:57:55 16:00:36 14° 95° (E) 16:03:18 ?
KITSAT 1 25 Jul 15:58:55 16:06:36 45° 55° (NE) 16:14:14 435.175 FM
UOSAT-12 25 Jul 16:24:53 16:28:58 31° 307° (NW) 16:33:08 437.025 FM, 437.400 FM
JAS-1B 25 Jul 16:25:06 16:32:16 31° 269° (W) 16:40:20 435.800 - 435.900 CW/SSB
TMSAT-1 25 Jul 16:31:36 16:35:41 23° 265° (W) 16:39:48 436.925 FM
Uosat F 25 Jul 16:53:43 16:58:40 58° 259° (W) 17:03:39 435.120 FM
Saudisat 1A 25 Jul 17:01:16 17:04:35 20° 50° (NE) 17:07:52 436.775 MHz
JAS-2 25 Jul 17:08:08 17:13:35 21° 63° (ENE) 17:18:52 435.800 - 435.900 CW/SSB, 435.910 FM
OPAL 25 Jul 17:34:48 17:39:45 57° 289° (WNW) 17:44:45 ?
AO-7 25 Jul 17:43:56 17:51:21 35° 261° (W) 17:58:51 29.400 - 29.500 MHz
RS-15 25 Jul 17:49:42 17:56:11 17° 336° (NNW) 18:02:41 29.354 - 29.394 USB, Beacon 29.352 USB
KITSAT 1 25 Jul 17:54:36 18:01:47 37° 252° (WSW) 18:08:58 435.175 FM
Hamsat 25 Jul 18:32:02 18:36:11 71° 259° (W) 18:40:22 145.90 MHz
Saudisat 1A 25 Jul 18:40:12 18:44:17 37° 246° (WSW) 18:48:19 436.775 MHz
